AirNav   Free Bose Alto or Rondo audio sunglasses
 
 1430 users online  

F88 Jonesboro Airport
Jonesboro, Louisiana, USA

GOING TO JONESBORO?


FAA INFORMATION EFFECTIVE 05 NOVEMBER 2020

Location

FAA Identifier: F88
Lat/Long: 32-12-07.2000N 092-43-58.6000W
32-12.120000N 092-43.976667W
32.2020000,-92.7329444
(estimated)
Elevation: 255.6 ft. / 77.9 m (surveyed)
Variation: 01E (2010)
From city: 3 miles S of JONESBORO, LA
Time zone: UTC -6 (UTC -5 during Daylight Saving Time)
Zip code: 71251

Airport Operations

Airport use: Open to the public
Activation date: 03/1964
Control tower: no
ARTCC: FORT WORTH CENTER
FSS: DE RIDDER FLIGHT SERVICE STATION
NOTAMs facility: DRI (NOTAM-D service available)
Attendance: UNATNDD
Wind indicator: lighted, LIGHTED WINDSOCK AT MIDFIELD.
Segmented circle: yes
Lights: REIL RWYS 18 & 36 AND MIRL RWY 18/36, PRESET LOW INTST; TO INCR INTST ACTVT - CTAF. PAPI RWY 36 OTS INDEFLY.
Beacon: white-green (lighted land airport)
Operates sunset to sunrise.

Airport Communications

CTAF: 122.9
MONROE APPROACH: 126.9
MONROE DEPARTURE: 126.9
  • APCH/DEP SVC PRVDD BY FORT WORTH ARTCC ON FREQS 126.325/346.25 (MONROE RCAG) WHEN MONROE APCH CTL CLSD.

Nearby radio navigation aids

VOR radial/distance  VOR name  Freq  Var
SWBr346/14.0SAWMILL VOR/DME113.7502E

 
NDB name  Hdg/Dist  Freq  Var  ID
RUSTON194/25.536803EROQ .-. --- --.-
NATCHITOCHES024/37.140704EOOC --- --- -.-.

Airport Services

Parking: tiedowns
Airframe service: NONE
Powerplant service: NONE
Bottled oxygen: NONE
Bulk oxygen: NONE

Runway Information

Runway 18/36

Dimensions: 3204 x 75 ft. / 977 x 23 m
Surface: asphalt, in good condition
Weight bearing capacity: 
Single wheel: 28.0
Runway edge lights: medium intensity
RUNWAY 18  RUNWAY 36
Latitude: 32-12.383912N32-11.855510N
Longitude: 092-43.980422W092-43.971602W
Elevation: 248.7 ft.255.5 ft.
Traffic pattern: leftleft
Runway heading: 178 magnetic, 179 true358 magnetic, 359 true
Markings: nonprecision, in good conditionnonprecision, in good condition
Visual slope indicator: 2-light PAPI on left (3.00 degrees glide path)2-light PAPI on left (3.00 degrees glide path)
Runway end identifier lights: yesyes
Touchdown point: yes, no lightsyes, no lights
Obstructions: 60 ft. trees, 1354 ft. from runway, 94 ft. left and right of centerline, 19:1 slope to clear85 ft. trees, 2693 ft. from runway, 46 ft. right of centerline, 29:1 slope to clear

Airport Ownership and Management from official FAA records

Ownership: Publicly-owned
Owner: CITY OF JONESBORO
128 ALLEN AVE
JONESBORO, LA 71251
Phone 318-259-2385
Manager: DENNIS HOOD
128 ALLEN AVE
JONESBORO, LA 71251
Phone (318) 245-0149

Airport Operational Statistics

Aircraft based on the field: 9
Single engine airplanes: 9
    
Aircraft operations: avg 115/week *
67% transient general aviation
33% local general aviation
* for 12-month period ending 19 December 2018

Additional Remarks

DEER AND WILDLIFE ON & INVOF ARPT.
SOUTH HOLD LINE NSTD DISTANCE FM RY CNTRLN.
FOR CD CTC MONROE APCH AT 318-327-5641, IF UNAVBL, CTC FORT WORTH ARTCC AT 817-858-7584.

Instrument Procedures

NOTE: All procedures below are presented as PDF files. If you need a reader for these files, you should download the free Adobe Reader.

NOT FOR NAVIGATION. Please procure official charts for flight.
FAA instrument procedures published for use from 05 November 2020 at 0901Z to 03 December 2020 at 0900z.

 
IAPs - Instrument Approach Procedures
RNAV (GPS) RWY 18   download (203KB)
RNAV (GPS) RWY 36   download (216KB)
NOTE: Special Take-Off Minimums/Departure Procedures apply   download (116KB)

Other nearby airports with instrument procedures:

0R5 - David G Joyce Airport (15 nm S)
KRSN - Ruston Regional Airport (20 nm N)
0R7 - The Red River Airport (32 nm SW)
KIER - Natchitoches Regional Airport (34 nm SW)
KMNE - Minden Airport (39 nm NW)
 
Loc | Ops | Rwys | IFR | FBO | Links
Com | Nav | Svcs | Stats | Notes
Area around F88 (Jonesboro Airport)
 
Road maps at: MapQuest Bing Google
 
Aerial photo
WARNING: Photo may not be current or correct
Aerial photo of F88 (Jonesboro Airport)
Photo by Ken DeSoto
Photo taken 15-Apr-2014
looking south.

Do you have a better or more recent aerial photo of Jonesboro Airport that you would like to share? If so, please send us your photo.

 
Sectional chart

 
Airport distance calculator
Flying to Jonesboro Airport? Find the distance to fly.

From to F88

Sunrise and sunset
Times for 02-Dec-2020
 Local
(UTC-6)
 Zulu
(UTC)
Morning civil twilight06:3012:30
Sunrise06:5712:57
Sunset17:0523:05
Evening civil twilight17:3223:32

Current date and time
Zulu (UTC)  02-Dec-2020 19:20:13
Local (UTC-6)  02-Dec-2020 13:20:13
 
METAR
KRSN 
20nm N 
021855Z AUTO 00000KT 10SM BKN110 13/M01 A3025 RMK AO2 T01271010
KIER 
34nm SW 
021855Z AUTO 13007KT 10SM BKN100 14/06 A3018 RMK AO2 T01440056
KMNE 
39nm NW 
021855Z AUTO 00000KT 10SM SCT070 OVC090 11/07 A3020 RMK AO2 T01050065
KMLU 
40nm NE 
021853Z VRB06KT 10SM CLR 14/M01 A3022 RMK AO2 SLP233 T01441006
TAF
KMLU 
40nm NE 
021753Z 0218/0318 12010G16KT P6SM BKN250 FM022100 11008KT P6SM OVC250 FM022200 10005KT P6SM OVC100 TEMPO 0222/0302 6SM -RA BR OVC050 FM030200 09006KT 4SM -RA BR OVC050 FM030800 09006KT 4SM -SHRA BR OVC025 FM031200 09004KT 6SM BR VCSH OVC010 FM031700 09004KT 4SM BR OVC003
NOTAMs
Click for the latest NOTAMs
NOTAMs are issued by the DoD/FAA and will open in a separate window not controlled by AirNav.

 

 
 

Would you like to see your business listed on this page?

 If your business provides an interesting product or service to pilots, flight crews, aircraft, or users of the Jonesboro Airport, you should consider listing it here.  To start the listing process, click on the button below
 
Add a business
 

Other Pages about Jonesboro Airport

Update a link
 
Copyright © AirNav, LLC. All rights reserved. Privacy Policy  Contact